Terug naar catalogus

KEPLER

ActiefWetenschapMEO
NORAD 34380·PAYLOAD·🇺🇸 United States

Gelanceerd Mar 7, 2009 vanaf Cape Canaveral Space Force Station

Loading…

Volgende Passages (komende 24 uur)

TLE

VerouderdSource: Space-Track

Epoch: Mar 8, 2009, 00:25 UTC

1 34380U 09011A   09067.01744983 +.00000005 +00000-0 +00000-0 0  9992
2 34380 028.5514 043.9608 2287689 108.4676 277.6729 07.34265484000068

Volg KEPLER in realtime met AllMySat

Download on the App Store